{"data":{"norad_id":55273,"epoch":"2026-05-25T03:46:46.557120Z","epoch_age_seconds":58505,"freshness":"FRESH","line1":"1 55273U 23010E   26145.15748330  .00000947  00000+0  87172-4 0  9995","line2":"2 55273  69.9992 211.5112 0003531 266.3875  93.6881 14.98331348184248","mean_motion":14.98331348,"eccentricity":0.0003531,"inclination_deg":69.9992,"raan_deg":211.5112,"arg_perigee_deg":266.3875,"mean_anomaly_deg":93.6881,"bstar":8.7172e-5,"rev_number":18424,"period_min":96.106912661351,"perigee_km":569.59761073087,"apogee_km":574.50583400661,"semimajor_km":6950.1887223687,"source":"CELESTRAK","updated_at":"2026-05-25T13:38:17.731296Z"}}